[ hide orbit diagram ]
For accurate long-term ephemerides, please instead use our Horizons system.This orbit viewer was implemented using two-body methods, and hence should not be used for determining accurate long-term trajectories (over several years or decades) or planetary encounter circumstances.
Orbital Elements at Epoch 2459000.5 (2020-May-31.0) TDB
Reference: JPL 12 (heliocentric ecliptic J2000)
Element | Value | Uncertainty (1-sigma) | Units |
e | .1514433572738692 | 5.2153e-08 | |
a | 2.692229122298187 | 2.0858e-08 | au |
q | 2.284508905466868 | 1.4819e-07 | au |
i | 6.052438635458183 | 7.8471e-06 | deg |
node | 215.572247678481 | 5.0689e-05 | deg |
peri | 271.160061074526 | 5.6983e-05 | deg |
M | 263.7256310665861 | 2.7163e-05 | deg |
tp | 2459431.993873000913 (2021-Aug-05.49387300) | 0.00012376 | TDB |
period | 1613.490651782558 4.42 | 1.8751e-05 5.134e-08 | d yr |
n | .2231187392392252 | 2.5929e-09 | deg/d |
Q | 3.099949339129507 | 2.4017e-08 | au |
|
| | Orbit Determination Parameters
Additional Information
|
[ show covariance matrix ]
Physical Parameter Table
Parameter |
Symbol |
Value |
Units |
Sigma |
Reference |
Notes |
absolute magnitude |
H |
16.4 |
|
n/a |
MPO494181 |
|
|
214023 (2004 DA24) Discovered 2004-Feb-19 by LINEAR at Socorro |
Reference: 20090509/Numbers.arc | Last Updated: 2009-05-11 |
|
Alternate Designations
2004 DA24 = 2000 GD63 = 2002 TF153 |
|
|